User: anonymous   Login
Location: Guilderland
(42.7045°N, 73.9115°W)
Time: 18:16:21
(UTC+00:00)
Language:

Cosmos 1340 Rocket - Orbit

View from above orbital plane
View from above orbital plane
View from above satellite
View from above satellite

Ground track
Ground track

The orbit data is extracted from the following two-line orbital elements,

1 13068U 82013B   20099.86116808 -.00000343 +00000-0 -24110-4 0  9994
2 13068 081.2007 129.9233 0022731 162.2688 197.9335 15.07410062077888
Epoch (UTC): 08 April 2020 20:40:04
Eccentricity: 0.0022731
inclination: 81.2007°
perigee height: 528 km
apogee height: 560 km
right ascension of ascending node: 129.9233°
argument of perigee: 162.2688°
revolutions per day: 15.07410062
mean anomaly at epoch: 197.9335°
orbit number at epoch: 7788

The dashed part of the orbit path shows where the satellite is in the earth's shadow,  

DLR